[[{"header":{"parameterUnit":"m.s-1","parameterCategory":1,"la1":30.2991,"la2":30.254,"lo1":-89.0895,"lo2":-89.0444,"dy":0.0017,"dx":0.0017,"nx":28,"ny":28,"refTime":"2025-04-23T09:00:00:Z","depth":0,"parameterNumber":2,"parameterNumberName":"U-component_of_WINDS"},"data":[0,0,0,0,0,0,0,0,0,0,0,0,0,0,0,0,0,0,0,0,0,0,0,0,0,0,0,0,0,0,0,0,0,0,0,0,0,0,0,0,0,0,0,0,0,0,0,0,0,0,0,0,0,0,0,0,0,0,-2.4154,-2.4156,0,-2.4304,-2.4306,-2.4307,-2.4319,-2.4317,-2.4315,-2.4314,-2.4471,-2.4477,-2.4483,0,0,0,0,0,0,0,0,0,0,0,0,0,-2.3882,-2.3887,-2.4154,-2.4156,-2.4158,-2.4304,-2.4306,-2.4308,-2.4319,-2.4317,-2.4315,-2.4313,-2.4469,-2.4476,-2.4483,0,0,0,0,0,0,0,0,0,0,0,0,0,-2.4013,-2.3888,-2.4154,-2.4181,-2.4185,-2.4303,-2.4306,-2.4308,-2.4319,-2.4317,-2.4315,-2.4312,-2.4467,-2.4476,-2.4484,-2.4587,0,0,-2.451,-2.4514,0,0,0,0,0,0,0,0,-2.4005,-2.4023,-2.4175,-2.4179,-2.4184,-2.429,-2.4268,-2.4402,-2.432,-2.4268,-2.4314,-2.4311,-2.4413,-2.4426,-2.446,-2.4594,-2.4601,-2.4511,-2.4516,-2.452,-2.4522,0,0,0,0,0,0,0,-2.3996,-2.4016,-2.4213,-2.4177,-2.4183,-2.4187,-2.4203,-2.4293,-2.4353,-2.4273,-2.4274,-2.4291,-2.4415,-2.4451,-2.4464,-2.4603,-2.4511,-2.4518,-2.4524,-2.4527,-2.4831,-2.4834,0,0,0,0,0,0,-2.3981,-2.4009,-2.4209,-2.4218,-2.4086,-2.4194,-2.4212,-2.4258,-2.4352,-2.4364,-2.4293,-2.4291,-2.4438,-2.4454,-2.4469,-2.4596,-2.452,-2.4528,-2.4533,-2.4828,-2.4832,-2.4835,0,0,0,0,0,0,-2.3976,-2.3999,-2.4203,-2.4114,-2.414,-2.4201,-2.4254,-2.4263,-2.4299,-2.4368,-2.4379,-2.4319,-2.4437,-2.4457,-2.4557,-2.4602,-2.4532,-2.454,-2.4825,-2.4829,-2.4833,-2.485,0,0,0,0,0,0,-2.3968,-2.3997,-2.4035,-2.4114,-2.4145,-2.4287,-2.4256,-2.4267,-2.4313,-2.4312,-2.4395,-2.4406,-2.4436,-2.4545,-2.4566,-2.4612,-2.4546,-2.4821,-2.4827,-2.4832,-2.4846,-2.4855,-2.4862,0,0,0,0,0,-2.3958,-2.4035,-2.4037,-2.4061,-2.4194,-2.4289,-2.4307,-2.4339,-2.4317,-2.4357,-2.4401,-2.4403,-2.4594,-2.4555,-2.4579,-2.4628,-2.4818,-2.4825,-2.4831,-2.4842,-2.4853,-2.4862,0,0,0,0,0,0,-2.3961,-2.4046,-2.4049,-2.4154,-2.4214,-2.4291,-2.4342,-2.4349,-2.4418,-2.4414,-2.4452,-2.4471,-2.457,-2.461,-2.4565,-2.4734,-2.4704,-2.4715,-2.4704,-2.4715,-2.4722,-2.4711,-2.4554,0,0,0,0,0,-2.3973,-2.4042,-2.4113,-2.4199,-2.4229,-2.428,-2.4323,-2.4343,-2.4408,-2.4433,-2.4485,-2.4549,-2.4623,-2.4671,-2.4743,-2.4852,-2.4871,-2.4899,-2.4906,-2.4913,-2.4922,-2.4984,-2.4997,-2.4856,-2.4856,-2.4856,0,0,-2.4,-2.4055,-2.4097,-2.4201,-2.425,-2.4322,-2.4302,-2.4379,-2.4433,-2.4446,-2.4543,-2.4584,-2.4657,-2.4763,-2.4812,-2.4799,-2.4966,-2.4921,-2.4926,-2.4932,-2.4992,-2.5005,-2.5017,-2.4861,-2.486,-2.4859,0,0,-2.4086,-2.4134,-2.4211,-2.426,-2.4334,-2.4368,-2.4387,-2.4463,-2.449,-2.4589,-2.46,-2.4666,-2.4793,-2.4845,-2.4888,-2.4995,-2.5,-2.5018,-2.506,-2.5119,-2.513,-2.514,-2.5179,-2.5192,-2.5027,-2.5028,-2.5028,0,-2.411,-2.4218,-2.425,-2.4326,-2.4373,-2.4386,-2.4465,-2.4512,-2.4607,-2.4639,-2.4623,-2.4783,-2.4834,-2.4952,-2.4978,-2.5012,-2.5036,-2.5008,-2.5126,-2.5136,-2.5146,-2.5183,-2.5198,-2.5029,-2.5029,-2.5029,-2.5029,0,-2.4244,-2.4319,-2.4372,-2.4462,-2.4514,-2.4592,-2.4637,-2.4687,-2.4702,-2.4738,-2.4839,-2.4901,-2.4986,-2.5016,-2.5032,-2.5137,-2.5126,-2.5118,-2.5088,-2.5161,-2.5196,-2.5211,-2.5031,-2.5031,-2.503,-2.503,0,0,-2.4335,-2.4441,-2.446,-2.4502,-2.4585,-2.4644,-2.4724,-2.4806,-2.4847,-2.4913,-2.4981,-2.5088,-2.5081,-2.513,-2.5153,-2.5205,-2.5287,-2.5191,-2.5193,-2.5207,-2.5407,-2.5412,-2.5428,-2.5291,-2.5294,-2.5296,-2.5401,0,-2.443,-2.4568,-2.46,-2.472,-2.479,-2.4805,-2.4875,-2.4934,-2.4971,-2.5037,-2.5078,-2.5153,-2.5138,-2.5168,-2.522,-2.5266,-2.5328,-2.5259,-2.5356,-2.5359,-2.5336,-2.5447,-2.5453,-2.5548,-2.5415,-2.5417,-2.5419,0,-2.4559,-2.4626,-2.4752,-2.4827,-2.4858,-2.4919,-2.4997,-2.506,-2.5129,-2.5152,-2.5207,-2.5225,-2.5309,-2.5276,-2.5394,-2.5346,-2.5388,-2.5417,-2.5421,-2.5431,-2.5393,-2.546,-2.5579,-2.5594,-2.5441,-2.5439,-2.5438,0,-2.4612,-2.4734,-2.4826,-2.4861,-2.495,-2.4993,-2.5033,-2.5099,-2.5147,-2.5216,-2.5248,-2.5326,-2.5369,-2.5431,-2.547,-2.5442,-2.5585,-2.5555,-2.5607,-2.5606,-2.5636,-2.5633,-2.5764,-2.5664,-2.5663,-2.5663,-2.5663,0,-2.4714,-2.4791,-2.4851,-2.4907,-2.4994,-2.5031,-2.5117,-2.5157,-2.5216,-2.5282,-2.5301,-2.5362,-2.541,-2.5479,-2.5511,-2.5604,-2.5623,-2.5645,-2.5652,-2.5643,-2.564,-2.5671,-2.5665,-2.5667,-2.5666,-2.5665,-2.5665,0,-2.4788,-2.4831,-2.4932,-2.5009,-2.503,-2.5091,-2.5157,-2.5214,-2.5251,-2.5334,-2.5356,-2.5414,-2.5496,-2.5542,-2.5645,-2.5666,-2.577,-2.5774,-2.5746,-2.5749,-2.5799,-2.5794,-2.5953,-2.5976,-2.5861,-2.5862,-2.5863,0,-2.485,-2.491,-2.4993,-2.5037,-2.5077,-2.5149,-2.5198,-2.5237,-2.5287,-2.5371,-2.5417,-2.55,-2.5568,-2.5699,-2.5752,-2.5832,-2.5838,-2.5888,-2.585,-2.5839,-2.5839,-2.5834,-2.5841,-2.5895,-2.5896,-2.5896,-2.5897,0,-2.4956,-2.4975,-2.5043,-2.512,-2.5177,-2.5239,-2.5301,-2.5337,-2.5387,-2.5443,-2.5526,-2.5579,-2.5684,-2.5767,-2.5851,-2.5893,-2.5904,-2.5909,-2.5925,-2.5916,-2.5897,-2.5908,-2.5764,-2.5905,-2.5904,-2.5904,-2.5903,-2.5903,-2.5027,-2.508,-2.5147,-2.5223,-2.5274,-2.5331,-2.5388,-2.5432,-2.5502,-2.5589,-2.5609,-2.5697,-2.5766,-2.588,-2.5925,-2.5996,-2.5986,-2.601,-2.6016,-2.6021,-2.6023,-2.5886,-2.6011,-2.6011,-2.6011,-2.6011,-2.6011,0,-2.5134,-2.5177,-2.5247,-2.5332,-2.5393,-2.5396,-2.5466,-2.5516,-2.5593,-2.5656,-2.5722,-2.5819,-2.5899,-2.5959,-2.6041,-2.6086,-2.6094,-2.6107,-2.6104,-2.6114,-2.6026,-2.6004,-2.61,-2.61,-2.61,-2.61,-2.61,-2.61,-2.5196,-2.5287,-2.5314,-2.5431,-2.5475,-2.556,-2.5599,-2.5653,-2.5703,-2.581,-2.5876,-2.5914,-2.5976,-2.6063,-2.6138,-2.6154,-2.6183,-2.6196,-2.6212,-2.6129,-2.612,-2.6111,-2.609,-2.6202,-2.6202,-2.6294,-2.6294,-2.6295]},{"header":{"parameterUnit":"m.s-1","parameterCategory":1,"la1":30.2991,"la2":30.254,"lo1":-89.0895,"lo2":-89.0444,"dy":0.0017,"dx":0.0017,"nx":28,"ny":28,"refTime":"2025-04-23T09:00:00:Z","depth":0,"parameterNumber":3,"parameterNumberName":"V-component_of_WINDS"},"data":[0,0,0,0,0,0,0,0,0,0,0,0,0,0,0,0,0,0,0,0,0,0,0,0,0,0,0,0,0,0,0,0,0,0,0,0,0,0,0,0,0,0,0,0,0,0,0,0,0,0,0,0,0,0,0,0,0,0,2.3315,2.3316,0,2.3391,2.3392,2.3393,2.3384,2.3382,2.3381,2.338,2.3455,2.3458,2.3461,0,0,0,0,0,0,0,0,0,0,0,0,0,2.3159,2.3162,2.3315,2.3316,2.3317,2.3391,2.3392,2.3393,2.3384,2.3382,2.3381,2.3379,2.3454,2.3458,2.3461,0,0,0,0,0,0,0,0,0,0,0,0,0,2.323,2.3163,2.3315,2.3321,2.3323,2.3391,2.3392,2.3393,2.3384,2.3382,2.338,2.3379,2.3453,2.3457,2.3462,2.3528,0,0,2.3476,2.3478,0,0,0,0,0,0,0,0,2.3226,2.3236,2.3319,2.3321,2.3323,2.3376,2.3365,2.3438,2.3385,2.3361,2.338,2.3378,2.343,2.3436,2.3455,2.3531,2.3534,2.3477,2.348,2.3482,2.3483,0,0,0,0,0,0,0,2.3221,2.3233,2.3345,2.332,2.3322,2.332,2.3328,2.3378,2.3405,2.3363,2.3362,2.3371,2.343,2.345,2.3456,2.3535,2.3477,2.3481,2.3484,2.3485,2.3669,2.3671,0,0,0,0,0,0,2.3215,2.3229,2.3342,2.3347,2.3269,2.3324,2.3333,2.3361,2.3404,2.3409,2.3373,2.3371,2.3443,2.3451,2.3459,2.3538,2.3482,2.3486,2.3489,2.3667,2.367,2.3672,0,0,0,0,0,0,2.3212,2.3225,2.3339,2.3288,2.3302,2.3329,2.336,2.3363,2.3383,2.3412,2.3416,2.3388,2.3442,2.3452,2.3511,2.3541,2.3488,2.3492,2.3665,2.3668,2.3671,2.3697,0,0,0,0,0,0,2.3207,2.3224,2.325,2.3289,2.3305,2.3391,2.3362,2.3366,2.3391,2.3389,2.3427,2.3432,2.3441,2.3504,2.3515,2.3546,2.3496,2.3662,2.3666,2.367,2.3694,2.3701,2.3707,0,0,0,0,0,2.3202,2.3254,2.3251,2.3265,2.3338,2.3392,2.3402,2.3412,2.3394,2.3419,2.3438,2.3431,2.3536,2.351,2.3523,2.3555,2.366,2.3665,2.3669,2.3691,2.3699,2.3707,0,0,0,0,0,0,2.3217,2.3259,2.3257,2.3323,2.3354,2.3391,2.3423,2.3421,2.3458,2.3454,2.3464,2.3473,2.3532,2.355,2.352,2.3621,2.3595,2.3603,2.3607,2.3616,2.3622,2.3616,2.35,0,0,0,0,0,2.3228,2.327,2.3304,2.3359,2.3375,2.3397,2.3421,2.3426,2.3459,2.3472,2.3495,2.3526,2.3566,2.3592,2.363,2.3697,2.3704,2.3726,2.3732,2.3737,2.3743,2.3779,2.3788,2.3687,2.3687,2.3687,0,0,2.3251,2.328,2.3305,2.3363,2.3388,2.343,2.3408,2.3453,2.3484,2.3478,2.3535,2.3553,2.3589,2.3651,2.368,2.3668,2.3773,2.3743,2.3747,2.375,2.3785,2.3794,2.3803,2.369,2.369,2.3689,0,0,2.3315,2.3341,2.339,2.3415,2.3454,2.3468,2.348,2.3517,2.3529,2.3586,2.3583,2.362,2.3688,2.3714,2.3735,2.381,2.3804,2.3822,2.3855,2.389,2.3898,2.3905,2.3931,2.394,2.3828,2.3828,2.3828,0,2.3339,2.3403,2.3415,2.3461,2.3486,2.3484,2.3533,2.3557,2.3606,2.3623,2.3609,2.3695,2.3719,2.3787,2.3805,2.3823,2.3836,2.3817,2.3896,2.3903,2.391,2.3934,2.3944,2.383,2.383,2.3829,2.3829,0,2.3429,2.3474,2.3508,2.3557,2.3586,2.3633,2.3651,2.3679,2.3683,2.3698,2.3756,2.3785,2.3829,2.3846,2.3849,2.3914,2.3905,2.3894,2.3868,2.3922,2.3944,2.3954,2.3832,2.3832,2.3831,2.3831,0,0,2.3503,2.3558,2.3571,2.3592,2.3635,2.3669,2.3716,2.376,2.3784,2.3818,2.3857,2.3915,2.3905,2.393,2.3936,2.3967,2.4023,2.3952,2.3952,2.3963,2.4095,2.4103,2.4113,2.402,2.4022,2.4023,2.4092,0,2.357,2.3654,2.3666,2.374,2.3781,2.378,2.3821,2.3851,2.3867,2.3903,2.392,2.3961,2.3945,2.396,2.3991,2.4009,2.4049,2.4005,2.4055,2.4056,2.4044,2.4125,2.4133,2.4197,2.4101,2.4103,2.4104,0,2.3659,2.3697,2.3774,2.3812,2.3829,2.3866,2.3907,2.3942,2.3976,2.3986,2.4014,2.4016,2.4064,2.4038,2.4103,2.4073,2.4094,2.4106,2.4109,2.4113,2.4082,2.413,2.4217,2.4226,2.4118,2.4117,2.4116,0,2.3704,2.3774,2.3829,2.3848,2.3893,2.3919,2.3939,2.3971,2.3997,2.4033,2.4049,2.409,2.4112,2.4143,2.4156,2.4136,2.4221,2.4195,2.4229,2.4228,2.4245,2.4244,2.4336,2.4261,2.4261,2.4261,2.4261,0,2.3777,2.3824,2.385,2.3884,2.3937,2.3951,2.4002,2.4021,2.405,2.4087,2.4089,2.4123,2.4139,2.4176,2.4187,2.4239,2.4249,2.4257,2.4259,2.4256,2.4255,2.4269,2.4264,2.4264,2.4263,2.4263,2.4262,0,2.3835,2.3855,2.3915,2.3953,2.3964,2.4001,2.4033,2.4066,2.4082,2.4128,2.414,2.4165,2.4208,2.4225,2.4278,2.4285,2.4344,2.4343,2.4333,2.4333,2.4365,2.4361,2.4468,2.4483,2.44,2.4401,2.4401,0,2.388,2.3916,2.3958,2.3984,2.4005,2.4046,2.4072,2.4087,2.4114,2.4156,2.4183,2.4227,2.4262,2.4332,2.4354,2.4394,2.4393,2.4428,2.4399,2.4395,2.4392,2.4389,2.4392,2.4433,2.4433,2.4434,2.4435,0,2.3956,2.3964,2.4003,2.4045,2.4076,2.411,2.4143,2.4163,2.4183,2.4213,2.4258,2.4286,2.434,2.4383,2.4425,2.4444,2.4442,2.4444,2.4453,2.445,2.4442,2.4446,2.4346,2.4441,2.444,2.444,2.4439,2.4439,2.4008,2.404,2.4075,2.4118,2.4144,2.4175,2.4207,2.4228,2.4266,2.4312,2.4318,2.4366,2.4399,2.4455,2.4476,2.4513,2.4504,2.4518,2.4521,2.4524,2.4526,2.4438,2.4521,2.4521,2.452,2.452,2.452,0,2.4084,2.4106,2.4146,2.4192,2.4225,2.4222,2.4258,2.4286,2.4329,2.436,2.4395,2.4446,2.4488,2.4514,2.4555,2.458,2.458,2.459,2.4588,2.4592,2.4532,2.4519,2.4589,2.4589,2.4589,2.4589,2.4589,2.4589,2.4127,2.4181,2.4193,2.426,2.4282,2.433,2.4351,2.4378,2.4404,2.4461,2.4496,2.4513,2.4542,2.4586,2.4623,2.463,2.4644,2.4655,2.4661,2.4604,2.4596,2.459,2.4577,2.4659,2.4659,2.4717,2.4718,2.4718]}]]